SCOUT B DEB, 2516

Orbit data source: Space-Track

SCOUT B DEB, 2516 is space debris in LEO originally from a launch on Fri, 10 Jun 1966 UTC launched from the Wallops Island (WLPIS). Debris objects in space refer to the collection of defunct objects orbiting the Earth. Examples of debris include non-operational satellites, rocket bodies, and fragments generated from explosions, collisions, or faulty payload assembly.

Loading next visibility...
Identifier
2516, 1966-052D
Orbit
LEO
Country
Flag of USUS
Related business
Manufacturer
Unknown
Mission
Spacecraft
Bus & Motor
Unknown
Mass
Unknown
Launch date (UTC)
1966-06-10 (60 years ago)
Launch vehicle
Unknown
Launch site
Wallops Island (WLPIS)
Object type
Payload
Rocket body
Debris
Shape & HBR
Unknown shape, 0.1 m
Radar Cross Section
Small (<0.1 m²)

Expand to show TLE details & history
Last TLE update: 2 months ago

TLE from 2 months ago
0 SCOUT B DEB
1 02516U 66052D   26011.89104914  .00000330  00000-0  68879-3 0  9996
2 02516  41.0266  88.3449 2223264 208.6662 137.1620 10.00933857308436
Epoch: 2026-01-11T21:23Z
TLE epoch observation values (Epoch: 2026-01-11T21:23:06.645Z)
Latitude
0.00003°
Longitude
16.17165°
Altitude
4,363.271 km
Speed
5.515 km/s
True Right ascension
05h 53m 22s
True Declination
0° 00' 00"
Sunlit
Object was in full shadow at epoch
Visualization orbit readout
Latitude
Unknown
Longitude
Unknown
Altitude
Unknown
Speed
Unknown
Apparent Right ascension
Unknown
Apparent Declination
Unknown
Sunlit
N/A
Visualization observer readout
Local Sidereal Time
00:48:48
Azimuth
Unknown
Elevation
Unknown
Doppler factor
Unknown
Orbital elements
Apogee altitude
4,741.074 km
Perigee altitude
696.174 km
Semi-major axis
9,096.761 km
Eccentricity
0.22233
Inclination
41.0266°
RAAN
88.3449°
Arg. of periapsis
208.6662°
True anomaly
151.39526°
Mean anomaly
137.162°
Eccentric anomaly
144.55013°
Mean motion
2.50157 °/min
Orbital period
143.91 mins
BSTAR
0.00068879
Loading maneuver chart data...
Computing Atmospheric mass density...
Loading historical data...
Loading historical data...
Loading historical data...
Loading historical data...
Loading historical data...
Loading historical data...
Loading historical data...
Other satellites on launch #52 in the year 1966 (1966-06-10 UTC)

Documentation

Showing up to 5 results
|